SCP
0 0 0 0 -0 -0 -0 0 0 -0 -0 0 0 0 -0 -0 -0 -0 -0 0 0 0 -0 -0 -0 -0 -0 -0 0 -0 -0 -0 -0 -0 -0 0 0 0 -0 0 0 0 0
0 0 0 0 0 -0 -0 -0 0 0 0 0 0 0 0 0 -0 -0 -0 -0 0 0 0 -0 0 0 -0 -0 -0 0 0 -0 -0 -0 -0 -0 0 0 0 -0 -0 0 0
0 0 0 0 0 -0 -0 -0 0 0 0 1 0 0 0 0 0 0 0 -0 -0 0 0 -0 0 0 0 0 0 0 -0 -0 -0 -0 -0 -0 -0 0 0 -0 -0 -0 0
0 0 0 0 0 0 0 0 0 0 0 0 0 0 0 0 0 0 0 0 0 0 -0 -0 -0 0 0 0 0 -0 -0 -0 -0 -0 -0 -0 -0 -0 -0 -0 -0 0 0
0 0 0 0 0 0 0 0 0 0 0 0 1 1 0 0 0 0 0 0 0 0 0 -0 -0 -0 0 0 0 0 -0 -0 -0 -0 -0 -0 -0 -0 -0 -0 0 0 0
1 0 0 0 0 0 0 0 0 0 0 0 0 0 0 0 0 0 0 0 0 0 0 0 0 -0 0 0 0 0 0 -0 -0 -0 -0 0 0 0 0 0 0 -0 -0
1 1 1 0 0 0 1 0 0 0 0 0 0 0 0 0 0 0 0 0 0 0 0 0 0 0 0 0 0 0 0 0 0 0 0 0 0 0 0 0 0 0 0
1 1 1 0 0 0 1 1 1 0 0 0 0 0 0 1 0 0 0 0 0 0 0 0 0 0 0 0 0 0 0 0 0 0 0 0 0 0 0 0 0 0 1
1 1 1 1 1 0 0 1 1 1 0 0 0 1 0 0 0 0 0 0 0 0 0 0 0 0 0 0 0 0 0 0 0 -0 0 0 0 0 0 0 0 -0 0
0 0 1 1 0 1 1 1 1 1 1 1 0 0 1 1 1 0 0 0 0 0 0 0 0 0 0 0 0 0 0 0 0 0 0 0 0 0 0 0 1 1 1
-0 0 0 0 0 1 2 2 2 2 1 1 1 1 0 1 1 0 0 0 0 0 0 0 0 0 0 0 0 0 0 1 0 0 0 0 0 0 0 1 0 1 1
0 0 -0 -0 1 1 1 2 2 2 2 1 1 1 1 1 1 0 0 0 0 1 1 0 0 0 0 0 0 0 0 0 0 0 0 0 0 1 1 1 1 0 1
0 0 0 0 1 1 1 2 2 2 2 2 2 1 1 2 1 0 0 0 0 0 1 0 0 0 0 0 0 0 0 0 0 0 0 0 1 1 1 1 1 1 1
0 0 0 0 1 2 2 2 2 2 2 2 2 2 1 2 1 2 0 0 0 -0 0 1 1 0 0 0 0 0 0 0 0 0 0 0 1 1 1 1 1 1 2
0 0 0 1 1 3 2 2 2 1 2 3 3 2 2 2 2 2 2 2 1 0 0 1 1 0 0 0 0 0 0 0 0 0 0 0 1 1 1 1 2 2 3
0 0 0 0 1 3 3 4 0 2 1 2 3 3 2 1 2 1 1 2 2 1 0 2 1 1 1 1 1 1 1 1 1 1 1 1 2 2 1 2 3 3 3
0 0 0 0 0 3 4 4 4 1 0 0 1 2 2 2 1 1 1 1 0 0 2 1 2 2 2 2 2 2 1 1 1 1 1 2 2 2 2 2 3 3 2
0 0 0 0 0 0 3 4 4 4 3 2 0 0 0 0 0 0 0 0 0 0 1 3 2 2 2 2 2 2 2 1 1 2 3 3 3 3 3 3 3 3 2
0 0 0 0 0 0 0 1 2 2 2 3 0 0 0 0 0 0 0 0 0 0 0 2 2 2 2 2 2 2 2 3 3 3 3 3 2 3 3 3 3 2 2
0 0 0 0 0 0 0 1 2 2 2 2 1 0 0 0 0 0 0 0 1 0 1 1 1 0 0 0 0 0 1 1 1 1 0 1 1 0 1 2 2 2 1
0 0 0 0 0 0 0 0 0 1 0 0 0 0 0 0 0 0 0 0 0 0 0 0 0 0 0 0 0 0 0 0 0 0 0 0 0 -0 0 1 1 1 1
0 0 0 0 0 0 0 0 0 0 0 0 0 0 0 0 0 0 0 0 0 0 0 0 0 0 0 0 0 0 0 0 0 0 0 0 0 0 0 0 0 1 1
0 0 0 0 0 0 0 0 0 0 0 0 0 0 0 0 0 0 0 0 0 0 0 0 0 0 0 0 0 0 0 0 0 0 0 0 0 0 0 0 0 0 0
0 0 0 0 0 0 0 0 0 0 0 0 0 0 0 0 0 0 0 0 0 0 0 0 0 0 0 0 0 0 0 0 0 0 0 0 0 0 0 0 0 0 0
0 0 0 0 0 0 0 0 0 0 0 0 0 0 0 0 0 0 0 0 0 0 0 0 0 0 0 0 0 0 0 0 0 0 0 0 0 0 0 0 0 0 0
0 0 0 0 0 0 0 0 0 0 0 0 0 0 0 0 0 0 0 0 0 0 0 0 0 0 0 0 0 0 0 0 0 0 0 0 0 0 0 0 0 0 0
Wind_Speed_500mb
91 84 81 85 83 84 79 69 55 52 50 44 37 39 43 36 27 28 29 26 29 29 27 29 36 40 36 28 19 23 19 22 26 27 26 26 29 33 36 35 35 40 48
94 88 83 85 88 84 88 82 68 65 57 54 51 42 50 46 35 30 34 35 32 32 28 25 27 38 46 41 32 27 28 28 31 34 30 30 33 32 36 29 29 36 34
99 90 85 84 91 93 88 89 83 73 69 69 63 57 46 48 43 33 32 33 36 38 35 34 28 34 37 41 44 38 35 32 35 42 46 46 45 41 31 32 33 29 53
105 94 88 86 89 93 94 90 92 86 79 70 67 64 59 53 49 39 32 32 37 39 41 36 35 33 36 36 38 37 41 43 42 46 51 52 52 41 41 42 50 57 55
105 99 96 89 88 86 89 96 94 93 91 82 76 71 64 60 59 54 49 42 39 42 44 47 43 41 42 40 40 43 43 46 46 47 49 48 47 44 46 54 64 59 57
98 100 93 93 95 94 87 87 91 100 98 94 88 81 78 72 68 63 57 53 49 46 46 48 50 50 47 44 43 41 41 43 47 48 50 51 50 49 49 50 53 63 71
80 88 94 90 98 97 91 86 89 88 94 105 100 94 91 88 86 80 72 66 60 57 53 50 50 49 48 48 44 42 44 45 46 49 54 54 56 51 52 56 59 65 62
73 77 86 93 95 93 90 82 84 85 85 92 100 101 97 93 88 85 79 72 67 63 59 53 49 47 47 46 46 49 52 53 53 52 59 60 61 56 57 62 68 66 64
83 75 73 89 100 94 89 78 76 79 79 81 88 92 95 93 87 80 75 75 72 68 62 58 55 52 47 45 47 51 52 54 53 57 60 62 62 63 65 69 61 57 59
62 63 70 80 91 93 91 80 76 77 73 73 79 85 87 89 86 79 72 71 73 72 68 65 62 60 55 53 54 56 60 58 56 58 60 61 61 60 51 47 44 51 49
64 70 64 63 96 111 102 88 84 82 78 74 74 75 78 84 85 82 77 75 74 72 73 71 67 63 61 60 59 63 65 57 59 57 48 44 44 44 38 35 41 46 47
51 57 66 75 89 98 102 99 92 88 86 82 77 75 75 75 73 73 73 75 71 74 74 68 67 62 59 60 63 64 61 57 56 53 57 57 52 45 39 41 44 39 33
35 42 62 69 84 86 94 102 95 93 93 91 86 83 80 76 72 70 68 67 66 72 71 67 64 65 66 66 64 63 57 59 64 66 66 61 52 46 44 47 36 32 31
44 36 48 51 71 80 89 95 96 95 99 97 93 88 82 77 75 72 69 66 63 65 67 67 65 66 67 69 67 65 64 64 63 64 65 65 59 51 51 44 35 29 35
38 40 42 54 61 72 88 92 93 94 94 92 93 84 79 79 74 68 68 63 60 59 57 63 72 71 72 74 74 75 76 77 80 81 79 71 60 55 52 39 37 36 38
37 33 35 45 59 67 82 92 90 90 90 84 82 77 69 65 63 61 55 58 55 50 55 62 65 67 70 66 65 66 69 74 77 76 75 73 65 52 43 33 37 37 37
40 35 35 35 48 63 78 88 87 85 85 80 79 75 70 62 57 53 53 48 44 43 59 63 64 62 63 58 58 59 56 54 59 62 58 55 49 45 42 39 39 38 40
37 38 39 31 44 51 64 78 80 77 76 76 75 70 69 67 60 53 48 52 62 59 62 66 62 59 60 61 62 58 52 43 40 40 40 39 39 40 37 37 42 42 35
36 38 40 35 36 45 54 57 59 64 67 70 72 74 71 67 62 49 56 57 49 50 56 60 61 72 73 67 56 52 46 45 46 44 41 42 37 37 45 43 40 35 34
32 30 34 34 35 39 46 50 57 59 57 63 69 70 76 72 63 68 61 55 48 42 37 35 37 41 45 50 53 54 53 50 41 39 35 30 35 54 50 39 36 37 38
24 23 28 37 26 31 39 53 51 60 63 59 62 62 60 69 67 66 68 64 58 54 52 52 52 47 50 50 42 21 20 18 22 38 25 13 18 72 32 33 28 30 32
16 15 21 20 27 35 42 41 44 47 56 54 51 60 69 68 73 71 70 64 54 47 40 40 42 41 35 29 38 47 56 62 52 51 68 64 70 80 49 33 30 29 29
18 18 12 14 17 28 33 43 48 51 52 51 50 48 45 50 57 57 50 47 43 37 33 32 33 31 32 39 45 42 27 24 27 37 44 37 41 39 29 36 43 38 39
20 19 18 16 13 22 37 34 45 52 56 60 58 55 54 52 43 37 35 27 25 25 28 26 23 27 28 23 24 22 16 16 23 27 28 27 24 20 26 31 42 40 42
14 16 16 20 22 22 29 41 42 45 47 54 46 39 37 46 46 39 39 36 27 20 19 17 18 18 19 16 12 15 11 13 14 15 19 19 25 29 33 41 47 52 55
15 17 24 28 31 29 35 34 42 46 42 51 45 37 37 37 34 21 29 32 32 27 22 15 11 8 6 5 6 9 18 21 23 20 24 30 34 35 39 43 48 50 53
Wind_Direction_500mb
225 228 230 227 219 215 213 213 215 210 215 215 217 231 229 225 230 230 223 218 212 208 216 222 227 224 222 228 245 249 267 263 269 268 277 275 284 290 292 298 301 307 311
226 227 230 230 226 218 216 214 214 216 215 222 227 238 228 226 232 236 228 223 217 213 209 220 224 220 229 232 242 245 251 259 270 278 281 283 287 298 306 297 301 306 316
225 227 230 230 227 224 220 219 218 219 221 226 231 231 222 224 230 235 233 230 231 231 230 233 233 227 230 237 240 250 251 256 263 274 283 289 294 303 295 294 306 299 313
231 228 230 232 230 228 227 223 223 222 222 225 230 234 232 230 234 235 239 243 239 239 238 238 236 236 242 245 246 256 257 258 264 270 276 283 291 298 296 303 307 313 317
232 232 233 234 234 231 230 230 228 227 228 229 230 233 234 233 238 241 246 250 249 245 244 242 244 244 246 251 257 257 256 255 260 268 275 283 286 293 301 311 311 313 317
233 235 239 237 236 235 233 232 233 232 231 230 232 233 235 237 241 245 250 254 254 252 249 249 249 249 250 250 249 254 254 257 263 269 276 280 286 296 305 307 307 312 318
232 239 239 241 240 236 235 234 234 234 234 235 235 235 235 237 242 247 251 254 256 255 254 253 251 250 250 251 250 251 252 255 260 270 276 279 288 297 301 301 305 305 305
226 232 239 241 241 238 234 234 236 236 233 233 236 238 238 239 241 245 248 251 255 255 255 255 253 251 251 256 259 260 260 261 261 263 271 278 284 291 292 299 302 299 303
228 226 236 240 242 239 235 235 235 238 238 234 234 238 238 241 243 244 244 246 251 255 253 252 252 255 254 255 260 263 264 264 263 266 271 278 282 287 291 293 292 298 302
231 226 228 238 240 239 241 239 238 238 242 239 237 238 241 243 244 245 245 246 249 251 253 253 253 255 259 261 262 266 270 270 277 280 279 278 280 281 281 279 291 293 296
251 223 223 241 243 240 247 243 241 240 240 241 240 240 242 244 245 247 247 247 249 250 250 253 255 257 259 263 264 266 270 281 284 280 275 273 274 276 281 290 295 290 283
259 239 248 250 242 242 243 245 242 241 241 241 242 243 244 245 247 246 247 247 248 249 250 252 258 262 264 265 267 268 272 275 270 266 270 271 271 277 292 292 287 271 265
301 252 246 250 238 241 241 242 241 241 241 241 241 243 247 248 249 249 248 247 245 249 251 254 259 263 268 268 265 265 264 257 259 264 268 273 279 290 286 281 275 258 263
298 287 252 252 237 237 240 242 242 239 239 239 240 243 246 248 250 251 249 247 245 246 250 255 259 264 267 268 268 265 261 259 261 264 268 276 280 278 278 281 262 255 262
295 291 277 247 244 236 239 239 242 245 243 243 243 246 248 249 251 252 252 250 248 250 254 255 257 259 261 263 264 263 263 262 262 265 269 272 274 276 272 262 254 258 262
300 291 278 245 233 238 236 237 240 246 247 247 249 252 257 259 262 262 260 262 264 264 260 258 260 261 262 265 269 271 269 266 265 266 266 265 267 264 262 251 253 256 260
299 290 284 259 233 231 236 236 237 238 239 242 245 249 254 259 261 262 262 266 264 261 259 259 259 262 263 264 268 272 276 276 266 262 262 257 253 259 259 248 251 249 260
289 284 282 261 236 232 234 240 242 244 242 240 241 248 249 249 252 253 248 253 252 255 258 260 260 259 258 265 268 269 270 272 260 252 250 254 258 263 254 250 257 257 256
281 279 276 265 241 234 233 237 244 248 249 249 246 244 247 243 241 240 242 244 253 250 253 255 259 259 261 264 264 265 266 268 269 262 265 265 262 260 261 255 258 264 270
270 277 276 262 252 245 245 247 250 253 254 251 249 246 238 233 232 234 236 230 223 226 238 246 253 254 252 255 257 260 259 257 253 254 249 248 281 286 271 263 265 277 277
272 275 265 252 243 241 248 253 251 245 247 247 245 241 237 233 228 222 218 221 231 241 243 238 236 235 236 239 241 242 252 263 307 279 226 184 330 305 265 270 269 276 271
263 253 236 239 229 236 238 223 230 226 227 219 221 229 227 208 209 209 213 223 227 228 230 227 225 227 213 236 251 253 265 280 280 271 264 241 243 269 254 253 261 270 288
249 228 182 191 170 155 188 190 211 200 192 188 180 171 183 191 193 194 185 181 181 185 190 190 193 202 227 239 253 264 259 254 238 240 239 227 219 228 224 261 263 268 271
238 237 200 174 137 142 143 152 148 159 158 167 160 158 160 155 154 161 164 163 165 173 179 189 211 233 237 233 235 245 237 215 220 229 230 232 241 243 253 249 260 268 271
196 196 177 156 152 145 131 133 125 138 142 144 142 140 137 148 142 139 137 146 155 166 177 205 194 186 194 207 215 232 238 233 260 275 259 259 263 262 264 265 271 274 270
117 140 125 127 123 129 119 119 115 119 122 120 124 130 132 128 138 111 105 120 124 128 129 134 166 191 154 225 262 299 290 292 297 299 295 282 277 274 274 272 274 275 278
Wind_Speed_850mb
91 84 81 85 83 84 79 69 55 52 50 44 37 39 43 36 27 28 29 26 29 29 27 29 36 40 36 28 19 23 19 22 26 27 26 26 29 33 36 35 35 40 48
94 88 83 85 88 84 88 82 68 65 57 54 51 42 50 46 35 30 34 35 32 32 28 25 27 38 46 41 32 27 28 28 31 34 30 30 33 32 36 29 29 36 34
99 90 85 84 91 93 88 89 83 73 69 69 63 57 46 48 43 33 32 33 36 38 35 34 28 34 37 41 44 38 35 32 35 42 46 46 45 41 31 32 33 29 53
105 94 88 86 89 93 94 90 92 86 79 70 67 64 59 53 49 39 32 32 37 39 41 36 35 33 36 36 38 37 41 43 42 46 51 52 52 41 41 42 50 57 55
105 99 96 89 88 86 89 96 94 93 91 82 76 71 64 60 59 54 49 42 39 42 44 47 43 41 42 40 40 43 43 46 46 47 49 48 47 44 46 54 64 59 57
98 100 93 93 95 94 87 87 91 100 98 94 88 81 78 72 68 63 57 53 49 46 46 48 50 50 47 44 43 41 41 43 47 48 50 51 50 49 49 50 53 63 71
80 88 94 90 98 97 91 86 89 88 94 105 100 94 91 88 86 80 72 66 60 57 53 50 50 49 48 48 44 42 44 45 46 49 54 54 56 51 52 56 59 65 62
73 77 86 93 95 93 90 82 84 85 85 92 100 101 97 93 88 85 79 72 67 63 59 53 49 47 47 46 46 49 52 53 53 52 59 60 61 56 57 62 68 66 64
83 75 73 89 100 94 89 78 76 79 79 81 88 92 95 93 87 80 75 75 72 68 62 58 55 52 47 45 47 51 52 54 53 57 60 62 62 63 65 69 61 57 59
62 63 70 80 91 93 91 80 76 77 73 73 79 85 87 89 86 79 72 71 73 72 68 65 62 60 55 53 54 56 60 58 56 58 60 61 61 60 51 47 44 51 49
64 70 64 63 96 111 102 88 84 82 78 74 74 75 78 84 85 82 77 75 74 72 73 71 67 63 61 60 59 63 65 57 59 57 48 44 44 44 38 35 41 46 47
51 57 66 75 89 98 102 99 92 88 86 82 77 75 75 75 73 73 73 75 71 74 74 68 67 62 59 60 63 64 61 57 56 53 57 57 52 45 39 41 44 39 33
35 42 62 69 84 86 94 102 95 93 93 91 86 83 80 76 72 70 68 67 66 72 71 67 64 65 66 66 64 63 57 59 64 66 66 61 52 46 44 47 36 32 31
44 36 48 51 71 80 89 95 96 95 99 97 93 88 82 77 75 72 69 66 63 65 67 67 65 66 67 69 67 65 64 64 63 64 65 65 59 51 51 44 35 29 35
38 40 42 54 61 72 88 92 93 94 94 92 93 84 79 79 74 68 68 63 60 59 57 63 72 71 72 74 74 75 76 77 80 81 79 71 60 55 52 39 37 36 38
37 33 35 45 59 67 82 92 90 90 90 84 82 77 69 65 63 61 55 58 55 50 55 62 65 67 70 66 65 66 69 74 77 76 75 73 65 52 43 33 37 37 37
40 35 35 35 48 63 78 88 87 85 85 80 79 75 70 62 57 53 53 48 44 43 59 63 64 62 63 58 58 59 56 54 59 62 58 55 49 45 42 39 39 38 40
37 38 39 31 44 51 64 78 80 77 76 76 75 70 69 67 60 53 48 52 62 59 62 66 62 59 60 61 62 58 52 43 40 40 40 39 39 40 37 37 42 42 35
36 38 40 35 36 45 54 57 59 64 67 70 72 74 71 67 62 49 56 57 49 50 56 60 61 72 73 67 56 52 46 45 46 44 41 42 37 37 45 43 40 35 34
32 30 34 34 35 39 46 50 57 59 57 63 69 70 76 72 63 68 61 55 48 42 37 35 37 41 45 50 53 54 53 50 41 39 35 30 35 54 50 39 36 37 38
24 23 28 37 26 31 39 53 51 60 63 59 62 62 60 69 67 66 68 64 58 54 52 52 52 47 50 50 42 21 20 18 22 38 25 13 18 72 32 33 28 30 32
16 15 21 20 27 35 42 41 44 47 56 54 51 60 69 68 73 71 70 64 54 47 40 40 42 41 35 29 38 47 56 62 52 51 68 64 70 80 49 33 30 29 29
18 18 12 14 17 28 33 43 48 51 52 51 50 48 45 50 57 57 50 47 43 37 33 32 33 31 32 39 45 42 27 24 27 37 44 37 41 39 29 36 43 38 39
20 19 18 16 13 22 37 34 45 52 56 60 58 55 54 52 43 37 35 27 25 25 28 26 23 27 28 23 24 22 16 16 23 27 28 27 24 20 26 31 42 40 42
14 16 16 20 22 22 29 41 42 45 47 54 46 39 37 46 46 39 39 36 27 20 19 17 18 18 19 16 12 15 11 13 14 15 19 19 25 29 33 41 47 52 55
15 17 24 28 31 29 35 34 42 46 42 51 45 37 37 37 34 21 29 32 32 27 22 15 11 8 6 5 6 9 18 21 23 20 24 30 34 35 39 43 48 50 53
Wind_Direction_850mb
225 228 230 227 219 215 213 213 215 210 215 215 217 231 229 225 230 230 223 218 212 208 216 222 227 224 222 228 245 249 267 263 269 268 277 275 284 290 292 298 301 307 311
226 227 230 230 226 218 216 214 214 216 215 222 227 238 228 226 232 236 228 223 217 213 209 220 224 220 229 232 242 245 251 259 270 278 281 283 287 298 306 297 301 306 316
225 227 230 230 227 224 220 219 218 219 221 226 231 231 222 224 230 235 233 230 231 231 230 233 233 227 230 237 240 250 251 256 263 274 283 289 294 303 295 294 306 299 313
231 228 230 232 230 228 227 223 223 222 222 225 230 234 232 230 234 235 239 243 239 239 238 238 236 236 242 245 246 256 257 258 264 270 276 283 291 298 296 303 307 313 317
232 232 233 234 234 231 230 230 228 227 228 229 230 233 234 233 238 241 246 250 249 245 244 242 244 244 246 251 257 257 256 255 260 268 275 283 286 293 301 311 311 313 317
233 235 239 237 236 235 233 232 233 232 231 230 232 233 235 237 241 245 250 254 254 252 249 249 249 249 250 250 249 254 254 257 263 269 276 280 286 296 305 307 307 312 318
232 239 239 241 240 236 235 234 234 234 234 235 235 235 235 237 242 247 251 254 256 255 254 253 251 250 250 251 250 251 252 255 260 270 276 279 288 297 301 301 305 305 305
226 232 239 241 241 238 234 234 236 236 233 233 236 238 238 239 241 245 248 251 255 255 255 255 253 251 251 256 259 260 260 261 261 263 271 278 284 291 292 299 302 299 303
228 226 236 240 242 239 235 235 235 238 238 234 234 238 238 241 243 244 244 246 251 255 253 252 252 255 254 255 260 263 264 264 263 266 271 278 282 287 291 293 292 298 302
231 226 228 238 240 239 241 239 238 238 242 239 237 238 241 243 244 245 245 246 249 251 253 253 253 255 259 261 262 266 270 270 277 280 279 278 280 281 281 279 291 293 296
251 223 223 241 243 240 247 243 241 240 240 241 240 240 242 244 245 247 247 247 249 250 250 253 255 257 259 263 264 266 270 281 284 280 275 273 274 276 281 290 295 290 283
259 239 248 250 242 242 243 245 242 241 241 241 242 243 244 245 247 246 247 247 248 249 250 252 258 262 264 265 267 268 272 275 270 266 270 271 271 277 292 292 287 271 265
301 252 246 250 238 241 241 242 241 241 241 241 241 243 247 248 249 249 248 247 245 249 251 254 259 263 268 268 265 265 264 257 259 264 268 273 279 290 286 281 275 258 263
298 287 252 252 237 237 240 242 242 239 239 239 240 243 246 248 250 251 249 247 245 246 250 255 259 264 267 268 268 265 261 259 261 264 268 276 280 278 278 281 262 255 262
295 291 277 247 244 236 239 239 242 245 243 243 243 246 248 249 251 252 252 250 248 250 254 255 257 259 261 263 264 263 263 262 262 265 269 272 274 276 272 262 254 258 262
300 291 278 245 233 238 236 237 240 246 247 247 249 252 257 259 262 262 260 262 264 264 260 258 260 261 262 265 269 271 269 266 265 266 266 265 267 264 262 251 253 256 260
299 290 284 259 233 231 236 236 237 238 239 242 245 249 254 259 261 262 262 266 264 261 259 259 259 262 263 264 268 272 276 276 266 262 262 257 253 259 259 248 251 249 260
289 284 282 261 236 232 234 240 242 244 242 240 241 248 249 249 252 253 248 253 252 255 258 260 260 259 258 265 268 269 270 272 260 252 250 254 258 263 254 250 257 257 256
281 279 276 265 241 234 233 237 244 248 249 249 246 244 247 243 241 240 242 244 253 250 253 255 259 259 261 264 264 265 266 268 269 262 265 265 262 260 261 255 258 264 270
270 277 276 262 252 245 245 247 250 253 254 251 249 246 238 233 232 234 236 230 223 226 238 246 253 254 252 255 257 260 259 257 253 254 249 248 281 286 271 263 265 277 277
272 275 265 252 243 241 248 253 251 245 247 247 245 241 237 233 228 222 218 221 231 241 243 238 236 235 236 239 241 242 252 263 307 279 226 184 330 305 265 270 269 276 271
263 253 236 239 229 236 238 223 230 226 227 219 221 229 227 208 209 209 213 223 227 228 230 227 225 227 213 236 251 253 265 280 280 271 264 241 243 269 254 253 261 270 288
249 228 182 191 170 155 188 190 211 200 192 188 180 171 183 191 193 194 185 181 181 185 190 190 193 202 227 239 253 264 259 254 238 240 239 227 219 228 224 261 263 268 271
238 237 200 174 137 142 143 152 148 159 158 167 160 158 160 155 154 161 164 163 165 173 179 189 211 233 237 233 235 245 237 215 220 229 230 232 241 243 253 249 260 268 271
196 196 177 156 152 145 131 133 125 138 142 144 142 140 137 148 142 139 137 146 155 166 177 205 194 186 194 207 215 232 238 233 260 275 259 259 263 262 264 265 271 274 270
117 140 125 127 123 129 119 119 115 119 122 120 124 130 132 128 138 111 105 120 124 128 129 134 166 191 154 225 262 299 290 292 297 299 295 282 277 274 274 272 274 275 278